CW8633 Weather Reports


time (UTC)temp
C
wind
direction
speed
KPH
gust
KPH
rain 1hr
cm
rain 24hr
cm
rain mn
cm
humidity
%
barometer
mb
20260906233626 26 182 9.7 12.9 0.00 0.00 0.00 31 1011.1
20260906232617 27 166 6.4 11.3 0.00 0.00 0.00 33 1011.1
20260906231629 27 186 8.0 11.3 0.00 0.00 0.00 32 1011.3
20260906230620 27 208 4.8 12.9 0.00 0.00 0.00 31 1011.4
20260906225645 27 221 9.7 14.5 0.00 0.00 0.00 30 1011.4
20260906224616 27 233 6.4 16.1 0.00 0.00 0.00 30 1011.4
20260906223627 27 224 9.7 17.7 0.00 0.00 0.00 30 1011.7
20260906222618 28 232 12.9 25.7 0.00 0.00 0.00 29 1011.6
20260906221613 28 243 12.9 29.0 0.00 0.00 0.00 28 1011.7
20260906220644 28 223 12.9 22.5 0.00 0.00 0.00 27 1011.8
20260906215624 28 244 6.4 17.7 0.00 0.00 0.00 26 1011.8
20260906214616 28 250 12.9 22.5 0.00 0.00 0.00 26 1011.9
20260906213631 28 240 9.7 22.5 0.00 0.00 0.00 26 1011.9
20260906212622 28 245 11.3 22.5 0.00 0.00 0.00 25 1012.0
20260906211652 28 210 9.7 14.5 0.00 0.00 0.00 26 1012.1
20260906210620 27 191 12.9 17.7 0.00 0.00 0.00 27 1012.2
20260906205627 28 200 11.3 17.7 0.00 0.00 0.00 27 1012.4
20260906204618 27 186 8.0 17.7 0.00 0.00 0.00 25 1012.6
20260906203628 27 250 12.9 17.7 0.00 0.00 0.00 26 1012.7
20260906202619 27 210 12.9 19.3 0.00 0.00 0.00 26 1013.0
20260906201614 27 212 11.3 16.1 0.00 0.00 0.00 25 1012.9
20260906200624 27 246 9.7 24.1 0.00 0.00 0.00 25 1012.9
20260906195626 27 210 11.3 17.7 0.00 0.00 0.00 25 1013.0
20260906194617 27 210 14.5 20.9 0.00 0.00 0.00 25 1013.3
20260906193612 27 224 11.3 25.7 0.00 0.00 0.00 23 1013.2
20260906192623 27 246 16.1 25.7 0.00 0.00 0.00 22 1013.2
20260906191613 27 232 16.1 29.0 0.00 0.00 0.00 21 1013.5
20260906190624 27 244 14.5 24.1 0.00 0.00 0.00 21 1013.4
20260906185649 27 272 14.5 22.5 0.00 0.00 0.00 22 1013.7
20260906184620 27 245 16.1 25.7 0.00 0.00 0.00 21 1013.8
20260906183630 27 238 12.9 27.4 0.00 0.00 0.00 22 1013.9
20260906182620 27 242 16.1 29.0 0.00 0.00 0.00 22 1014.0
20260906181635 27 259 19.3 29.0 0.00 0.00 0.00 22 1014.1
20260906180648 27 209 14.5 33.8 0.00 0.00 0.00 24 1014.3
20260906175628 27 191 17.7 25.7 0.00 0.00 0.00 24 1014.5
20260906174619 26 251 11.3 22.5 0.00 0.00 0.00 27 1014.7
20260906173628 26 209 16.1 22.5 0.00 0.00 0.00 28 1014.7
20260906172622 26 198 11.3 17.7 0.00 0.00 0.00 27 1014.8
20260906171612 26 209 12.9 27.4 0.00 0.00 0.00 28 1014.9
20260906170641 26 232 9.7 22.5 0.00 0.00 0.00 29 1014.9
20260906165640 25 227 19.3 22.5 0.00 0.00 0.00 27 1014.9
20260906164635 25 225 11.3 17.7 0.00 0.00 0.00 30 1014.9
20260906163623 23 267 3.2 9.7 0.00 0.00 0.00 32 1015.1
20260906162651 23 251 4.8 9.7 0.00 0.00 0.00 31 1015.1
20260906161619 22 304 3.2 6.4 0.00 0.00 0.00 32 1015.1
20260906160630 22 336 1.6 4.8 0.00 0.00 0.00 33 1015.2
20260906155614 21 274 3.2 6.4 0.00 0.00 0.00 34 1015.3
20260906154625 21 273 1.6 3.2 0.00 0.00 0.00 36 1015.3
20260906153617 20 273 0.0 3.2 0.00 0.00 0.00 41 1015.3
20260906152612 19 273 1.6 3.2 0.00 0.00 0.00 50 1015.4
20260906151644 18 273 1.6 6.4 0.00 0.00 0.00 52 1015.3
20260906150613 19 59 1.6 4.8 0.00 0.00 0.00 50 1015.3
20260906145615 18 98 3.2 4.8 0.00 0.00 0.00 51 1015.3
20260906144627 17 98 1.6 3.2 0.00 0.00 0.00 46 1015.3
20260906143621 16 98 1.6 3.2 0.00 0.00 0.00 46 1015.2
20260906142613 15 98 0.0 1.6 0.00 0.00 0.00 48 1015.2
20260906141624 15 98 0.0 1.6 0.00 0.00 0.00 50 1015.1
20260906140619 13 98 0.0 4.8 0.00 0.00 0.00 52 1015.1
20260906135621 13 98 0.0 3.2 0.00 0.00 0.00 50 1014.9
20260906134633 12 98 0.0 4.8 0.00 0.00 0.00 50 1014.8
20260906133623 12 98 1.6 6.4 0.00 0.00 0.00 49 1014.8
20260906132618 12 98 0.0 4.8 0.00 0.00 0.00 51 1014.7
20260906131629 12 98 1.6 4.8 0.00 0.00 0.00 52 1014.5
20260906130621 12 98 0.0 0.0 0.00 0.00 0.00 53 1014.6
20260906125622 12 98 0.0 4.8 0.00 0.00 0.00 53 1014.6
20260906124618 12 98 3.2 6.4 0.00 0.00 0.00 53 1014.5
20260906123630 12 98 4.8 6.4 0.00 0.00 0.00 53 1014.4
20260906122621 11 98 3.2 6.4 0.00 0.00 0.00 54 1014.3
20260906121612 11 98 0.0 1.6 0.00 0.00 0.00 55 1014.5
20260906120628 11 98 0.0 6.4 0.00 0.00 0.00 56 1014.4
20260906115628 11 101 1.6 4.8 0.00 0.00 0.00 57 1014.4
20260906114619 10 101 1.6 4.8 0.00 0.00 0.00 59 1014.3
20260906113630 10 101 0.0 9.7 0.00 0.00 0.00 58 1014.3
20260906112623 11 140 6.4 9.7 0.00 0.00 0.00 55 1014.4
20260906111613 12 293 0.0 6.4 0.00 0.00 0.00 54 1014.3
20260906110623 12 18 0.0 4.8 0.00 0.00 0.00 53 1014.3
20260906105623 12 18 3.2 4.8 0.00 0.00 0.00 54 1014.2
20260906104639 11 18 3.2 4.8 0.00 0.00 0.00 55 1014.2
20260906103628 11 18 1.6 4.8 0.00 0.00 0.00 56 1014.1
20260906102617 11 287 1.6 4.8 0.00 0.00 0.00 57 1014.2
20260906101626 11 286 1.6 3.2 0.00 0.00 0.00 57 1014.0
20260906100643 12 286 0.0 4.8 0.00 0.00 0.00 57 1014.1
20260906095623 12 286 0.0 8.0 0.00 0.00 0.00 55 1014.1
20260906094613 12 114 0.0 0.0 0.00 0.00 0.00 52 1013.9
20260906093623 12 114 0.0 0.0 0.00 0.00 0.00 52 1013.8
20260906092637 12 114 0.0 0.0 0.00 0.00 0.00 53 1013.7
20260906091629 12 114 0.0 0.0 0.00 0.00 0.00 53 1013.7
20260906090620 12 125 0.0 0.0 0.00 0.00 0.00 53 1013.7
20260906085621 12 125 0.0 0.0 0.00 0.00 0.00 51 1013.6
20260906084616 13 125 0.0 0.0 0.00 0.00 0.00 50 1013.6
20260906083626 13 125 0.0 0.0 0.00 0.00 0.00 50 1013.5
20260906082618 13 128 0.0 0.0 0.00 0.00 0.00 50 1013.7
20260906081612 13 128 0.0 4.8 0.00 0.00 0.00 48 1013.7
20260906080624 14 131 1.6 3.2 0.00 0.00 0.00 48 1013.7
20260906075645 13 131 1.6 3.2 0.00 0.00 0.00 48 1013.7
20260906074615 13 131 1.6 6.4 0.00 0.00 0.00 48 1013.8
20260906073647 14 131 1.6 4.8 0.00 0.00 0.00 49 1013.8
20260906072621 15 131 0.0 3.2 0.00 0.00 0.00 47 1013.7
20260906071616 15 131 0.0 3.2 0.00 0.00 0.00 46 1013.5
20260906070627 16 131 1.6 4.8 0.00 0.00 0.00 43 1013.4
20260906065627 16 131 0.0 3.2 0.00 0.00 0.00 43 1013.5
20260906064623 17 131 1.6 4.8 0.00 0.00 0.00 41 1013.3
20260906063615 17 132 0.0 3.2 0.00 0.00 0.00 39 1013.4
20260906062628 17 132 0.0 3.2 0.00 0.00 0.00 38 1013.5
20260906061640 17 131 1.6 4.8 0.00 0.00 0.00 38 1013.4
20260906060611 17 131 3.2 4.8 0.00 0.00 0.00 38 1013.3
20260906055617 17 131 0.0 4.8 0.00 0.00 0.00 39 1013.4
20260906054629 17 131 0.0 1.6 0.00 0.00 0.00 39 1013.5
20260906053620 17 131 0.0 1.6 0.00 0.00 0.00 38 1013.3
20260906052612 17 131 0.0 3.2 0.00 0.00 0.00 38 1013.3
20260906051648 18 131 0.0 0.0 0.00 0.00 0.00 38 1013.3
20260906050618 18 131 0.0 3.2 0.00 0.00 0.00 38 1013.3
20260906045619 18 131 3.2 9.7 0.00 0.00 0.00 38 1013.3
20260906044631 17 158 3.2 9.7 0.00 0.00 0.00 41 1013.3
20260906043627 16 170 4.8 8.0 0.00 0.00 0.00 44 1013.3
20260906042617 16 192 0.0 6.4 0.00 0.00 0.00 47 1013.5
20260906041627 17 194 4.8 9.7 0.00 0.00 0.00 45 1013.3
20260906040618 18 220 8.0 12.9 0.00 0.00 0.00 41 1013.2
20260906035623 21 117 3.2 6.4 0.00 0.00 0.00 28 1012.9
20260906034613 23 62 0.0 9.7 0.00 0.00 0.00 22 1012.8
20260906033624 23 79 8.0 16.1 0.00 0.00 0.00 22 1012.7
20260906032615 23 76 9.7 16.1 0.00 0.00 0.00 23 1012.7
20260906031631 23 53 8.0 14.5 0.00 0.00 0.00 24 1012.8
20260906030623 23 67 8.0 16.1 0.00 0.00 0.00 24 1012.8
20260906025625 23 60 9.7 16.1 0.00 0.00 0.00 24 1012.8
20260906024616 23 82 12.9 17.7 0.00 0.00 0.00 25 1012.8
20260906023633 23 57 12.9 17.7 0.00 0.00 0.00 26 1012.7
20260906022623 22 83 8.0 12.9 0.00 0.00 0.00 27 1012.7
20260906021614 23 74 4.8 8.0 0.00 0.00 0.00 27 1012.7
20260906020625 24 155 4.8 6.4 0.00 0.00 0.00 29 1012.7
20260906015652 25 236 0.0 3.2 0.00 0.00 0.00 28 1012.9
20260906014621 26 236 3.2 4.8 0.00 0.00 0.00 28 1013.0
20260906013613 27 236 3.2 4.8 0.00 0.00 0.00 26 1013.0
20260906012626 28 236 1.6 3.2 0.00 0.00 0.00 22 1013.1
20260906011620 28 236 1.6 3.2 0.00 0.00 0.00 21 1013.2
20260906010612 29 236 3.2 3.2 0.00 0.00 0.00 19 1013.2
20260906005613 28 236 3.2 4.8 0.00 0.00 0.00 18 1013.1
20260906004625 28 236 6.4 11.3 0.00 0.00 0.00 19 1013.2
20260906003620 29 257 6.4 16.1 0.00 0.00 0.00 19 1013.1
20260906002631 29 244 4.8 12.9 0.00 0.00 0.00 19 1013.0
20260906001621 29 220 4.8 11.3 0.00 0.00 0.00 19 1013.0
20260906000616 29 200 4.8 11.3 0.00 0.00 0.00 19 1013.0
20260905235622 29 196 6.4 11.3 0.00 0.00 0.00 18 1013.2
20260905234614 29 248 6.4 20.9 0.00 0.00 0.00 18 1013.2